KD0MAC Weather Reports


time (UTC)temp
C
wind
direction
speed
KPH
gust
KPH
rain 1hr
cm
rain 24hr
cm
rain mn
cm
humidity
%
barometer
mb
20260906200935 31 120 11.3 20.9 0.00 0.00 0.36 55 1014.6
20260906200436 31 41 8.0 17.7 0.00 0.00 0.36 56 1014.6
20260906195935 31 150 11.3 19.3 0.00 0.00 0.36 57 1014.9
20260906195854 31 150 11.3 19.3 0.00 0.00 0.36 57 1014.9
20260906195354 31 59 11.3 19.3 0.00 0.00 0.36 56 1014.9
20260906194854 31 145 11.3 16.1 0.00 0.00 0.36 56 1014.9
20260906194355 31 186 9.7 17.7 0.00 0.00 0.36 55 1015.2
20260906193854 31 129 6.4 14.5 0.00 0.00 0.36 60 1015.2
20260906193354 30 201 9.7 20.9 0.00 0.00 0.36 61 1015.2
20260906192936 30 170 9.7 20.9 0.00 0.00 0.36 60 1015.2
20260906192435 30 124 11.3 17.7 0.00 0.00 0.36 60 1015.2
20260906191935 29 122 9.7 17.7 0.00 0.00 0.36 64 1015.2
20260906191435 29 145 12.9 19.3 0.00 0.00 0.36 64 1015.2
20260906190935 29 163 9.7 14.5 0.00 0.00 0.36 63 1015.2
20260906190435 28 95 9.7 17.7 0.00 0.00 0.36 66 1015.6
20260906185937 27 194 12.9 20.9 0.00 0.00 0.36 67 1015.6
20260906185855 27 194 12.9 20.9 0.00 0.00 0.36 67 1015.6
20260906185435 28 165 9.7 16.1 0.00 0.00 0.36 68 1015.6
20260906184935 28 94 6.4 11.3 0.00 0.00 0.36 71 1015.6
20260906184855 28 94 6.4 11.3 0.00 0.00 0.36 71 1015.6
20260906184435 26 137 9.7 16.1 0.00 0.00 0.36 74 1015.6
20260906183935 26 107 9.7 14.5 0.00 0.00 0.36 76 1015.6
20260906183854 26 107 9.7 14.5 0.00 0.00 0.36 76 1015.6
20260906183435 26 141 11.3 17.7 0.00 0.00 0.36 75 1015.6
20260906183355 26 141 11.3 17.7 0.00 0.00 0.36 75 1015.6
20260906182935 26 208 9.7 17.7 0.00 0.00 0.36 77 1015.6
20260906182435 25 124 9.7 17.7 0.00 0.00 0.36 79 1015.9
20260906181935 25 105 4.8 12.9 0.00 0.00 0.36 81 1015.9
20260906181854 25 105 4.8 12.9 0.00 0.00 0.36 81 1015.9
20260906181435 25 126 8.0 19.3 0.00 0.00 0.36 82 1015.9
20260906180936 25 162 11.3 19.3 0.00 0.00 0.36 81 1015.9
20260906180435 25 96 6.4 14.5 0.00 0.00 0.36 83 1015.9
20260906180354 25 96 6.4 14.5 0.00 0.00 0.36 83 1015.9
20260906175854 25 134 9.7 11.3 0.00 0.00 0.36 83 1016.3
20260906175435 24 166 6.4 12.9 0.00 0.00 0.36 85 1016.3
20260906174936 24 89 6.4 14.5 0.00 0.00 0.36 85 1016.6
20260906174436 24 44 6.4 12.9 0.00 0.00 0.36 86 1016.6
20260906173935 24 224 6.4 9.7 0.00 0.00 0.36 86 1016.6
20260906173435 24 139 6.4 11.3 0.00 0.00 0.36 86 1016.6
20260906172935 24 98 4.8 17.7 0.00 0.00 0.36 86 1016.9
20260906172854 24 98 4.8 17.7 0.00 0.00 0.36 86 1016.9
20260906172354 24 127 4.8 12.9 0.00 0.00 0.36 88 1016.9
20260906171854 24 101 4.8 9.7 0.00 0.00 0.36 87 1016.9
20260906171359 23 118 3.2 16.1 0.00 0.00 0.36 90 1016.9
20260906170854 23 126 4.8 11.3 0.00 0.00 0.36 90 1016.9
20260906170354 23 120 6.4 12.9 0.03 0.00 0.36 89 1017.3
20260906165854 23 64 6.4 12.9 0.03 0.00 0.36 91 1017.3
20260906165354 23 124 4.8 9.7 0.03 0.00 0.36 92 1017.3
20260906164854 23 160 6.4 9.7 0.03 0.00 0.36 93 1017.3
20260906164354 22 138 4.8 8.0 0.03 0.00 0.36 94 1017.3
20260906163855 22 98 4.8 8.0 0.03 0.00 0.36 94 1017.3
20260906163354 22 62 4.8 8.0 0.03 0.00 0.36 95 1017.3
20260906162856 22 145 3.2 6.4 0.03 0.00 0.36 95 1017.6
20260906162357 22 90 4.8 9.7 0.03 0.00 0.36 95 1017.6
20260906161854 22 130 3.2 9.7 0.03 0.00 0.36 95 1017.9
20260906161436 21 153 3.2 4.8 0.00 0.00 0.36 95 1017.9
20260906160935 21 89 1.6 6.4 0.00 0.00 0.33 95 1017.9
20260906160435 21 117 3.2 4.8 0.00 0.00 0.25 95 1017.9
20260906155936 21 88 3.2 4.8 0.00 0.00 0.23 95 1018.3
20260906155435 21 102 0.0 4.8 0.00 0.00 0.20 95 1018.6
20260906154935 21 52 3.2 9.7 0.00 0.00 0.20 95 1018.3
20260906154855 21 52 3.2 9.7 0.00 0.00 0.20 95 1018.3
20260906154354 21 131 1.6 4.8 0.00 0.00 0.20 95 1018.3
20260906153854 21 90 1.6 4.8 0.00 0.00 0.20 95 1018.3
20260906153354 21 107 0.0 4.8 0.00 0.00 0.20 95 1018.3
20260906152854 21 114 1.6 6.4 0.00 0.00 0.20 95 1018.3
20260906152354 21 102 3.2 8.0 0.00 0.00 0.20 95 1018.3
20260906151936 21 78 3.2 6.4 0.00 0.00 0.20 95 1017.9
20260906151435 21 130 4.8 9.7 0.00 0.00 0.20 94 1017.9
20260906150935 21 129 4.8 9.7 0.00 0.00 0.20 94 1017.9
20260906150854 21 129 4.8 9.7 0.00 0.00 0.20 94 1017.9
20260906150435 21 119 4.8 9.7 0.00 0.00 0.20 94 1017.9
20260906150354 21 119 4.8 9.7 0.00 0.00 0.20 94 1017.9
20260906145935 21 123 4.8 9.7 0.00 0.00 0.20 94 1017.9
20260906145854 21 123 4.8 9.7 0.00 0.00 0.20 94 1017.9
20260906145435 21 110 3.2 9.7 0.00 0.00 0.20 94 1017.9
20260906144936 21 190 6.4 11.3 0.00 0.00 0.20 94 1017.9
20260906144854 21 190 6.4 11.3 0.03 0.00 0.20 94 1017.9
20260906144435 21 115 3.2 11.3 0.00 0.00 0.20 94 1017.9
20260906144355 21 115 3.2 11.3 0.03 0.00 0.20 94 1017.9
20260906143935 21 110 3.2 9.7 0.00 0.00 0.20 94 1017.9
20260906143435 21 128 6.4 9.7 0.00 0.00 0.20 94 1017.9
20260906143355 21 128 6.4 9.7 0.03 0.00 0.20 94 1017.9
20260906142854 21 117 4.8 8.0 0.03 0.00 0.20 94 1017.9
20260906142354 21 131 1.6 4.8 0.03 0.00 0.20 93 1017.9
20260906141855 21 93 0.0 1.6 0.03 0.00 0.20 93 1018.3
20260906141354 21 99 0.0 0.0 0.03 0.00 0.20 93 1018.3
20260906140855 21 78 0.0 4.8 0.03 0.00 0.18 93 1018.3
20260906140435 21 125 1.6 4.8 0.00 0.00 0.15 93 1018.3
20260906135935 21 106 0.0 4.8 0.00 0.00 0.15 93 1018.3
20260906135435 21 112 1.6 4.8 0.00 0.00 0.13 93 1017.9
20260906134935 21 88 0.0 4.8 0.00 0.00 0.10 92 1018.3
20260906134436 21 86 0.0 3.2 0.00 0.00 0.10 92 1018.3
20260906133935 21 81 0.0 4.8 0.00 0.00 0.10 92 1018.3
20260906133435 21 137 0.0 8.0 0.00 0.00 0.10 92 1018.3
20260906132936 21 76 4.8 8.0 0.00 0.00 0.08 92 1018.3
20260906132855 21 76 4.8 8.0 0.03 0.00 0.08 92 1018.3
20260906132435 21 111 3.2 4.8 0.00 0.00 0.05 91 1017.9
20260906131935 21 67 0.0 4.8 0.00 0.00 0.03 91 1018.3
20260906131435 21 276 1.6 8.0 0.00 0.00 0.03 91 1018.3
20260906130935 21 222 1.6 6.4 0.00 0.00 0.03 91 1017.9
20260906130855 21 222 1.6 6.4 0.00 0.00 0.03 91 1017.9
20260906130355 21 79 3.2 6.4 0.00 0.00 0.03 91 1017.9
20260906125854 21 2 3.2 6.4 0.00 0.00 0.03 91 1017.9
20260906125355 21 360 4.8 9.7 0.00 0.00 0.00 91 1017.9
20260906124855 21 98 6.4 9.7 0.00 0.00 0.00 90 1017.9
20260906124435 21 137 3.2 6.4 0.00 0.00 0.00 90 1017.6
20260906124354 21 137 3.2 6.4 0.00 0.00 0.00 90 1017.6
20260906123935 21 86 4.8 11.3 0.00 0.00 0.00 90 1017.6
20260906123436 21 26 4.8 11.3 0.00 0.00 0.00 89 1017.6
20260906122935 21 66 1.6 8.0 0.00 0.00 0.00 89 1017.6
20260906122435 21 310 4.8 9.7 0.00 0.00 0.00 88 1017.6
20260906122354 21 310 4.8 9.7 0.00 0.00 0.00 88 1017.6
20260906121854 22 64 6.4 12.9 0.00 0.00 0.00 87 1017.6
20260906121435 22 54 3.2 14.5 0.00 0.00 0.00 86 1017.6
20260906121355 22 54 3.2 14.5 0.00 0.00 0.00 86 1017.6
20260906120935 22 347 11.3 16.1 0.00 0.00 0.00 85 1017.6
20260906120436 22 297 11.3 19.3 0.00 0.00 0.00 84 1017.6
20260906115935 22 318 6.4 9.7 0.00 0.00 0.00 83 1017.3
20260906115854 22 318 6.4 9.7 0.00 0.00 0.00 83 1017.3
20260906115435 22 72 9.7 17.7 0.00 0.00 0.00 82 1017.3
20260906115354 22 72 9.7 17.7 0.00 0.00 0.00 82 1017.3
20260906114935 23 278 12.9 17.7 0.00 0.00 0.00 80 1017.3
20260906114435 23 334 9.7 20.9 0.00 0.00 0.00 78 1017.3
20260906113935 23 283 11.3 24.1 0.00 0.00 0.00 75 1017.3
20260906113854 23 283 11.3 24.1 0.00 0.00 0.00 75 1017.3
20260906113355 24 1 16.1 24.1 0.00 0.00 0.00 72 1016.9
20260906112855 24 316 16.1 20.9 0.00 0.00 0.00 70 1016.6
20260906112354 24 329 12.9 17.7 0.00 0.00 0.00 69 1016.6
20260906111935 25 310 12.9 16.1 0.00 0.00 0.00 68 1016.6
20260906111854 25 310 12.9 16.1 0.00 0.00 0.00 68 1016.6
20260906111354 24 324 6.4 9.7 0.00 0.00 0.00 67 1016.3
20260906110935 24 191 3.2 8.0 0.00 0.00 0.00 68 1015.6
20260906110435 24 175 6.4 8.0 0.00 0.00 0.00 69 1015.2
20260906105935 24 168 4.8 6.4 0.00 0.00 0.00 70 1015.2
20260906105435 24 207 6.4 9.7 0.00 0.00 0.00 70 1014.9
20260906104935 24 135 4.8 8.0 0.00 0.00 0.00 70 1014.9
20260906104854 24 135 4.8 8.0 0.00 0.00 0.00 70 1014.9
20260906104354 24 90 6.4 8.0 0.00 0.00 0.00 70 1014.6
20260906103936 24 114 3.2 8.0 0.00 0.00 0.00 70 1014.6
20260906103854 24 114 3.2 8.0 0.00 0.00 0.00 70 1014.6
20260906103435 24 104 3.2 8.0 0.00 0.00 0.00 70 1014.2
20260906102935 24 112 3.2 8.0 0.00 0.00 0.00 70 1014.2
20260906102435 24 121 4.8 9.7 0.00 0.00 0.00 70 1014.2
20260906102354 24 121 4.8 9.7 0.00 0.00 0.00 70 1014.2
20260906101935 24 208 6.4 11.3 0.00 0.00 0.00 69 1014.2
20260906101854 24 208 6.4 11.3 0.00 0.00 0.00 69 1014.2
20260906101435 24 199 6.4 11.3 0.00 0.00 0.00 69 1014.2
20260906100936 24 153 4.8 9.7 0.00 0.00 0.00 69 1014.2
20260906100855 24 153 4.8 9.7 0.00 0.00 0.00 69 1014.2
20260906100435 24 168 6.4 9.7 0.00 0.00 0.00 69 1014.2
20260906095935 24 173 4.8 9.7 0.00 0.00 0.00 70 1014.2
20260906095435 24 132 4.8 8.0 0.00 0.00 0.00 71 1014.2
20260906095354 24 132 4.8 8.0 0.00 0.00 0.00 71 1014.2
20260906094935 23 152 4.8 8.0 0.00 0.00 0.00 72 1014.2
20260906094854 23 152 4.8 8.0 0.00 0.00 0.00 72 1014.2
20260906094355 23 161 6.4 9.7 0.00 0.00 0.00 72 1014.2
20260906093935 23 106 3.2 9.7 0.00 0.00 0.00 74 1014.2
20260906093435 23 130 4.8 8.0 0.00 0.00 0.00 75 1014.2
20260906092935 23 153 6.4 8.0 0.00 0.00 0.00 75 1014.2
20260906092435 23 151 4.8 6.4 0.00 0.00 0.00 75 1014.2
20260906091935 23 188 4.8 8.0 0.00 0.00 0.00 74 1013.9
20260906091855 23 188 4.8 8.0 0.00 0.00 0.00 74 1013.9
20260906091354 23 164 4.8 6.4 0.00 0.00 0.00 74 1013.9
20260906090935 23 132 3.2 9.7 0.00 0.00 0.00 75 1013.9
20260906090854 23 132 3.2 9.7 0.00 0.00 0.00 75 1013.9
20260906090436 23 149 6.4 9.7 0.00 0.00 0.00 75 1014.2
20260906085934 23 151 3.2 6.4 0.00 0.00 0.00 76 1014.2
20260906085435 23 116 3.2 8.0 0.00 0.00 0.00 76 1013.9
20260906085354 23 116 3.2 8.0 0.00 0.00 0.00 76 1013.9
20260906084855 23 120 1.6 6.4 0.00 0.00 0.00 76 1013.9
20260906084435 23 54 3.2 6.4 0.00 0.00 0.00 76 1013.9
20260906084354 23 54 3.2 6.4 0.00 0.00 0.00 76 1013.9
20260906083854 23 98 4.8 0.0 0.00 0.00 0.00 72 1014.2
20260906083354 23 98 4.8 0.0 0.00 0.00 0.00 72 1014.2
20260906082854 23 98 4.8 0.0 0.00 0.00 0.00 72 1014.2
20260906082355 23 98 4.8 0.0 0.00 0.00 0.00 72 1014.2
20260906081935 23 98 4.8 0.0 0.00 0.00 0.00 72 1014.2
20260906081435 23 98 4.8 0.0 0.00 0.00 0.00 72 1014.2
20260906081355 23 98 4.8 0.0 0.00 0.00 0.00 72 1014.2
20260906080935 23 98 4.8 6.4 0.00 0.00 0.00 72 1014.2
20260906080854 23 98 4.8 6.4 0.00 0.00 0.00 72 1014.2
20260906080435 23 105 3.2 6.4 0.00 0.00 0.00 72 1014.6
20260906080355 23 105 3.2 6.4 0.00 0.00 0.00 72 1014.6
20260906075941 23 80 3.2 6.4 0.00 0.00 0.00 73 1014.6
20260906075447 23 99 3.2 0.0 0.00 0.00 0.00 73 1014.6
20260906075358 23 99 3.2 0.0 0.00 0.00 0.00 73 1014.6
20260906074855 23 99 3.2 0.0 0.00 0.00 0.00 73 1014.6
20260906074435 23 99 3.2 4.8 0.00 0.00 0.00 73 1014.6
20260906074354 23 99 3.2 4.8 0.00 0.00 0.00 73 1014.6
20260906073854 23 101 1.6 4.8 0.00 0.00 0.00 73 1014.6
20260906073354 24 123 1.6 0.0 0.00 0.00 0.00 70 1013.9
20260906072854 24 123 1.6 0.0 0.00 0.00 0.00 70 1013.9
20260906072354 24 123 1.6 0.0 0.00 0.00 0.00 70 1013.9
20260906071854 24 123 1.6 0.0 0.00 0.00 0.00 70 1013.9
20260906071354 24 123 1.6 0.0 0.00 0.00 0.00 70 1013.9
20260906070854 24 123 1.6 0.0 0.00 0.00 0.00 70 1013.9
20260906070354 24 123 1.6 0.0 0.00 0.00 0.00 70 1013.9
20260906065855 24 123 1.6 0.0 0.00 0.00 0.00 70 1013.9
20260906065354 24 123 1.6 0.0 0.00 0.00 0.00 70 1013.9
20260906064935 24 123 1.6 0.0 0.00 0.00 0.00 70 1013.9
20260906064854 24 123 1.6 0.0 0.00 0.00 0.00 70 1013.9
20260906064354 24 123 1.6 0.0 0.00 0.00 0.00 70 1013.9
20260906063854 24 123 1.6 0.0 0.00 0.00 0.00 70 1013.9
20260906063354 24 123 1.6 0.0 0.00 0.00 0.00 70 1013.9
20260906062935 24 123 1.6 0.0 0.00 0.00 0.00 70 1013.9
20260906062435 24 123 1.6 0.0 0.00 0.00 0.00 70 1013.9
20260906062354 24 123 1.6 0.0 0.00 0.00 0.00 70 1013.9
20260906061936 24 123 1.6 0.0 0.00 0.00 0.00 70 1013.9
20260906061436 24 123 1.6 0.0 0.00 0.00 0.00 70 1013.9
20260906060935 24 123 1.6 0.0 0.00 0.00 0.00 70 1013.9
20260906060854 24 123 1.6 0.0 0.00 0.00 0.00 70 1013.9
20260906060354 24 123 1.6 0.0 0.00 0.00 0.00 70 1013.9
20260906055854 24 123 1.6 0.0 0.00 0.00 0.00 70 1013.9
20260906055435 24 123 1.6 0.0 0.00 0.00 0.00 70 1013.9
20260906055354 24 123 1.6 0.0 0.00 0.00 0.00 70 1013.9
20260906054854 24 123 1.6 0.0 0.00 0.00 0.00 70 1013.9
20260906054435 24 123 1.6 0.0 0.00 0.00 0.00 70 1013.9
20260906054354 24 123 1.6 0.0 0.00 0.00 0.00 70 1013.9
20260906053854 24 123 1.6 4.8 0.00 0.00 0.00 70 1013.9
20260906053354 24 157 3.2 4.8 0.00 0.00 0.00 69 1013.9
20260906052854 24 157 3.2 6.4 0.00 0.00 0.00 69 1013.9
20260906052354 25 135 1.6 6.4 0.00 0.00 0.00 69 1013.9
20260906051855 25 87 1.6 6.4 0.00 0.00 0.00 68 1013.9
20260906051439 25 117 3.2 4.8 0.00 0.00 0.00 68 1013.9
20260906050935 25 119 3.2 4.8 0.00 0.00 0.00 68 1013.9
20260906050435 25 90 3.2 6.4 0.00 0.00 0.00 68 1014.2
20260906045936 25 104 0.0 3.2 0.00 0.00 0.00 68 1014.2
20260906045435 25 160 1.6 3.2 0.00 0.00 0.00 68 1014.2
20260906044935 25 115 3.2 4.8 0.00 0.00 0.00 68 1014.2
20260906044856 25 115 3.2 4.8 0.00 0.00 0.00 68 1014.2
20260906044436 25 92 0.0 0.0 0.00 0.00 0.00 67 1014.2
20260906043936 25 92 0.0 0.0 0.00 0.00 0.00 67 1014.2
20260906043436 25 92 0.0 0.0 0.00 0.00 0.00 67 1014.2
20260906042935 25 110 1.6 3.2 0.00 0.00 0.00 67 1014.2
20260906042435 25 182 1.6 3.2 0.00 0.00 0.00 66 1014.6
20260906041935 25 89 1.6 6.4 0.00 0.00 0.00 66 1014.6
20260906041435 25 76 1.6 4.8 0.00 0.00 0.00 66 1014.6
20260906040935 25 186 3.2 4.8 0.00 0.00 0.00 65 1014.6
20260906040435 26 187 3.2 6.4 0.00 0.00 0.00 65 1014.6
20260906035937 26 200 1.6 4.8 0.00 0.00 0.00 65 1014.6
20260906035435 26 101 1.6 4.8 0.00 0.00 0.00 65 1014.6
20260906034935 26 175 1.6 6.4 0.00 0.00 0.00 65 1014.6
20260906034435 26 160 3.2 6.4 0.00 0.00 0.00 65 1014.6
20260906033935 26 117 4.8 6.4 0.00 0.00 0.00 65 1014.2
20260906033435 26 123 3.2 8.0 0.00 0.00 0.00 65 1014.2
20260906032935 26 111 3.2 8.0 0.00 0.00 0.00 65 1014.2
20260906032435 25 186 3.2 4.8 0.00 0.00 0.00 66 1014.2
20260906032354 25 186 3.2 4.8 0.00 0.00 0.00 66 1014.2
20260906031935 25 131 0.0 4.8 0.00 0.00 0.00 66 1014.2
20260906031435 25 121 1.6 6.4 0.00 0.00 0.00 66 1013.9
20260906030935 26 160 3.2 6.4 0.00 0.00 0.00 66 1013.9
20260906030435 26 191 3.2 6.4 0.00 0.00 0.00 66 1013.9
20260906030354 26 191 3.2 6.4 0.00 0.00 0.00 66 1013.9
20260906025935 26 159 3.2 6.4 0.00 0.00 0.00 66 1013.9
20260906025436 26 165 3.2 6.4 0.00 0.00 0.00 66 1013.9
20260906025355 26 165 3.2 6.4 0.00 0.00 0.00 66 1013.9
20260906024855 26 180 1.6 3.2 0.00 0.00 0.00 66 1013.9
20260906024435 26 152 4.8 6.4 0.00 0.00 0.00 66 1013.5
20260906024355 26 152 4.8 6.4 0.00 0.00 0.00 66 1013.5
20260906023854 26 179 3.2 4.8 0.00 0.00 0.00 65 1013.5
20260906023435 26 115 1.6 4.8 0.00 0.00 0.00 64 1013.5
20260906023354 26 115 1.6 4.8 0.00 0.00 0.00 64 1013.5
20260906022854 26 90 4.8 8.0 0.00 0.00 0.00 64 1013.5
20260906022435 26 153 8.0 11.3 0.00 0.00 0.00 63 1013.5
20260906022355 26 153 8.0 11.3 0.00 0.00 0.00 63 1013.5
20260906021854 26 171 4.8 6.4 0.00 0.00 0.00 64 1013.5
20260906021357 26 143 3.2 6.4 0.00 0.00 0.00 63 1013.5
20260906020935 26 86 1.6 4.8 0.00 0.00 0.00 63 1013.5
20260906020854 26 86 1.6 4.8 0.00 0.00 0.00 63 1013.5
20260906020354 26 98 3.2 6.4 0.00 0.00 0.00 62 1013.5
20260906015854 27 95 3.2 6.4 0.00 0.00 0.00 61 1013.5
20260906015354 27 177 1.6 6.4 0.00 0.00 0.00 61 1013.2
20260906014854 27 141 1.6 4.8 0.00 0.00 0.00 60 1013.2
20260906014435 27 134 1.6 4.8 0.00 0.00 0.00 60 1012.9
20260906013935 27 106 3.2 4.8 0.00 0.00 0.00 60 1012.9
20260906013435 27 97 1.6 6.4 0.00 0.00 0.00 59 1012.9
20260906012936 27 162 3.2 6.4 0.00 0.00 0.00 59 1012.9
20260906012435 27 196 3.2 6.4 0.00 0.00 0.00 58 1012.9
20260906012354 27 196 3.2 6.4 0.00 0.00 0.00 58 1012.9
20260906011935 28 118 3.2 6.4 0.00 0.00 0.00 58 1012.9
20260906011854 28 118 3.2 6.4 0.00 0.00 0.00 58 1012.9
20260906011435 28 183 3.2 6.4 0.00 0.00 0.00 57 1012.5
20260906011354 28 183 3.2 6.4 0.00 0.00 0.00 57 1012.5
20260906010854 28 65 1.6 9.7 0.00 0.00 0.00 57 1012.5
20260906010354 28 110 3.2 4.8 0.00 0.00 0.00 57 1012.9
20260906005935 28 117 1.6 6.4 0.00 0.00 0.00 57 1012.9
20260906005855 28 117 1.6 6.4 0.00 0.00 0.00 57 1012.9
20260906005354 28 120 3.2 9.7 0.00 0.00 0.00 57 1012.9
20260906004935 28 116 4.8 9.7 0.00 0.00 0.00 57 1012.9
20260906004854 28 116 4.8 9.7 0.00 0.00 0.00 57 1012.9
20260906004355 28 200 4.8 9.7 0.00 0.00 0.00 57 1012.9
20260906003936 28 174 4.8 14.5 0.00 0.00 0.00 56 1012.9
20260906003854 28 174 4.8 14.5 0.00 0.00 0.00 56 1012.9
20260906003354 29 152 4.8 8.0 0.00 0.00 0.00 56 1012.9
20260906002935 29 255 3.2 11.3 0.00 0.00 0.00 56 1012.9
20260906002854 29 255 3.2 11.3 0.00 0.00 0.00 56 1012.9
20260906002354 29 92 4.8 6.4 0.00 0.00 0.00 55 1013.2
20260906001854 29 134 6.4 12.9 0.00 0.00 0.00 55 1013.2
20260906001435 29 111 9.7 17.7 0.00 0.00 0.00 54 1013.2
20260906000935 30 109 6.4 16.1 0.00 0.00 0.00 53 1013.2
20260906000435 30 231 6.4 11.3 0.00 0.00 0.00 52 1013.2
20260906000356 30 231 6.4 11.3 0.00 0.00 0.00 52 1013.2
20260905235854 30 205 8.0 24.1 0.00 0.00 0.00 51 1013.2
20260905235435 30 147 11.3 24.1 0.00 0.00 0.00 50 1013.2
20260905234935 30 259 9.7 14.5 0.00 0.00 0.00 49 1013.2
20260905234435 31 228 9.7 14.5 0.00 0.00 0.00 49 1013.2
20260905234356 31 228 9.7 14.5 0.00 0.00 0.00 49 1013.2
20260905233935 31 104 9.7 16.1 0.00 0.00 0.00 48 1013.2
20260905233435 31 181 11.3 14.5 0.00 0.00 0.00 48 1013.2
20260905233354 31 181 11.3 14.5 0.00 0.00 0.00 48 1013.2
20260905232935 31 156 9.7 14.5 0.00 0.00 0.00 49 1013.2
20260905232435 32 190 9.7 14.5 0.00 0.00 0.00 47 1013.2
20260905231935 32 100 9.7 22.5 0.00 0.00 0.00 45 1013.2
20260905231854 32 100 9.7 22.5 0.00 0.00 0.00 45 1013.2
20260905231355 32 79 11.3 22.5 0.00 0.00 0.00 44 1012.9
20260905230935 33 128 8.0 19.3 0.00 0.00 0.00 43 1012.9
20260905230854 33 128 8.0 19.3 0.00 0.00 0.00 43 1012.9
20260905230355 33 129 11.3 22.5 0.00 0.00 0.00 42 1012.9
20260905225854 33 133 12.9 27.4 0.00 0.00 0.00 41 1012.9
20260905225354 34 194 8.0 20.9 0.00 0.00 0.00 42 1012.9
20260905224854 33 133 12.9 22.5 0.00 0.00 0.00 43 1012.5
20260905224355 33 216 12.9 22.5 0.00 0.00 0.00 42 1012.9
20260905223854 35 219 12.9 19.3 0.00 0.00 0.00 40 1012.5
20260905223355 36 176 11.3 16.1 0.00 0.00 0.00 35 1012.5
20260905222854 36 49 9.7 14.5 0.00 0.00 0.00 36 1012.5
20260905222359 36 161 8.0 12.9 0.00 0.00 0.00 36 1012.2
20260905221935 36 153 9.7 16.1 0.00 0.00 0.00 36 1012.5
20260905221435 36 74 4.8 12.9 0.00 0.00 0.00 37 1012.2
20260905220935 36 165 9.7 22.5 0.00 0.00 0.00 37 1012.5
20260905220854 36 165 9.7 22.5 0.00 0.00 0.00 37 1012.5
20260905220435 36 232 9.7 12.9 0.00 0.00 0.00 36 1012.2
20260905220354 36 232 9.7 12.9 0.00 0.00 0.00 36 1012.2
20260905215935 37 143 9.7 17.7 0.00 0.00 0.00 35 1012.5
20260905215855 37 143 9.7 17.7 0.00 0.00 0.00 35 1012.5
20260905215435 37 147 8.0 14.5 0.00 0.00 0.00 35 1012.2
20260905214935 37 77 9.7 12.9 0.00 0.00 0.00 35 1012.2
20260905214435 37 56 8.0 16.1 0.00 0.00 0.00 37 1012.2
20260905213935 37 96 6.4 14.5 0.00 0.00 0.00 36 1012.5
20260905213854 37 96 6.4 14.5 0.00 0.00 0.00 36 1012.5
20260905213355 37 232 8.0 12.9 0.00 0.00 0.00 35 1012.5
20260905212854 37 165 9.7 20.9 0.00 0.00 0.00 37 1012.5
20260905212435 37 267 9.7 16.1 0.00 0.00 0.00 36 1012.5
20260905212354 37 267 9.7 16.1 0.00 0.00 0.00 36 1012.5
20260905211935 37 252 9.7 16.1 0.00 0.00 0.00 36 1012.5
20260905211854 37 252 9.7 16.1 0.00 0.00 0.00 36 1012.5
20260905211355 37 173 8.0 14.5 0.00 0.00 0.00 34 1012.9
20260905210854 37 85 6.4 14.5 0.00 0.00 0.00 34 1012.9
20260905210436 37 170 4.8 11.3 0.00 0.00 0.00 35 1012.9
20260905210354 37 170 4.8 11.3 0.00 0.00 0.00 35 1012.9
20260905205935 37 102 6.4 14.5 0.00 0.00 0.00 33 1012.9
20260905205435 37 119 3.2 14.5 0.00 0.00 0.00 35 1012.9
20260905204935 37 145 6.4 12.9 0.00 0.00 0.00 32 1012.9
20260905204435 37 139 11.3 20.9 0.00 0.00 0.00 31 1013.2
20260905204355 37 139 11.3 20.9 0.00 0.00 0.00 31 1013.2
20260905203935 38 151 6.4 9.7 0.00 0.00 0.00 30 1013.2
20260905203855 38 151 6.4 9.7 0.00 0.00 0.00 30 1013.2
20260905203354 37 352 6.4 12.9 0.00 0.00 0.00 30 1013.2
20260905202854 38 288 4.8 11.3 0.00 0.00 0.00 32 1013.2
20260905202436 37 14 4.8 14.5 0.00 0.00 0.00 33 1013.2
20260905202354 37 14 4.8 14.5 0.00 0.00 0.00 33 1013.2
20260905201854 37 124 9.7 14.5 0.00 0.00 0.00 32 1013.2
20260905201355 37 93 6.4 9.7 0.00 0.00 0.00 31 1013.2